This is the latest recevied weather packets stored in our database for station/object KA7EII-13. If no packets are shown the sender has not sent any weather packets the latest 10 day(s).
| Time | Temp. | Humidity | Pressure | Rain* | Wind** | Luminosity | Snow |
|---|---|---|---|---|---|---|---|
| 1778029796 | 13.89° C | 33% | 1098.6 hPa | 0 mm | - | 47 W/m² | - |
| 1778029496 | 13.89° C | 33% | 1098.6 hPa | 0 mm | - | 75 W/m² | - |
| 1778029191 | 14.44° C | 32% | 1098.3 hPa | 0 mm | - | 68 W/m² | - |
| 1778028890 | 14.44° C | 31% | 1098.6 hPa | 0 mm | - | 95 W/m² | - |
| 1778028590 | 14.44° C | 31% | 1098.5 hPa | 0 mm | - | 52 W/m² | - |
| 1778028289 | 15° C | 31% | 1098.2 hPa | 0 mm | - | 38 W/m² | - |
| 1778027984 | 15° C | 30% | 1098.1 hPa | 0 mm | - | 35 W/m² | - |
| 1778027681 | 15.56° C | 29% | 1098 hPa | 0 mm | - | 44 W/m² | - |
| 1778027377 | 16.11° C | 29% | 1098 hPa | 0 mm | - | 114 W/m² | - |
| 1778027073 | 16.11° C | 28% | 1098.1 hPa | 0 mm | - | 152 W/m² | - |
| 1778026769 | 16.11° C | 28% | 1098.1 hPa | 0 mm | - | 98 W/m² | - |
| 1778026466 | 16.11° C | 28% | 1098 hPa | 0 mm | - | 105 W/m² | - |
| 1778026163 | 16.11° C | 29% | 1098.1 hPa | 0 mm | - | 74 W/m² | - |
| 1778025861 | 16.67° C | 28% | 1098 hPa | 0 mm | - | 91 W/m² | - |
| 1778025557 | 16.67° C | 27% | 1097.8 hPa | 0 mm | - | 88 W/m² | - |
| 1778025256 | 16.67° C | 27% | 1097.6 hPa | 0 mm | - | 126 W/m² | - |
| 1778024952 | 16.67° C | 27% | 1097.8 hPa | 0 mm | - | 92 W/m² | - |
| 1778024650 | 17.22° C | 27% | 1097.7 hPa | 0 mm | - | 165 W/m² | - |
| 1778024346 | 16.67° C | 27% | 1097.7 hPa | 0 mm | - | 171 W/m² | - |
| 1778024044 | 17.22° C | 27% | 1097.7 hPa | 0 mm | - | 145 W/m² | - |
| 1778023741 | 17.22° C | 26% | 1098 hPa | 0 mm | - | 254 W/m² | - |
| 1778023439 | 17.78° C | 26% | 1098 hPa | 0 mm | - | 253 W/m² | - |
| 1778023135 | 17.78° C | 27% | 1097.7 hPa | 0 mm | - | 305 W/m² | - |
| 1778022833 | 17.78° C | 26% | 1097.4 hPa | 0 mm | - | 355 W/m² | - |
| 1778022531 | 18.33° C | 25% | 1097.6 hPa | 0 mm | - | 375 W/m² | - |
* Rain latest hour (hover to see other rain measurements)
** Current wind speed in m/s (hover to see current wind gust speed)